[[{"header":{"parameterUnit":"m.s-1","parameterCategory":1,"la1":30.2991,"la2":30.254,"lo1":-89.0895,"lo2":-89.0444,"dy":0.0017,"dx":0.0017,"nx":28,"ny":28,"refTime":"2025-01-17T09:00:00:Z","depth":0,"parameterNumber":2,"parameterNumberName":"U-component_of_WINDS"},"data":[0,0,0,0,0,0,0,0,0,0,0,0,0,0,0,0,0,0,0,0,0,0,0,0,0,0,0,0,0,0,0,0,0,0,0,0,0,0,0,0,0,0,0,0,0,0,0,0,0,0,0,0,0,0,0,0,0,0,-2.0198,-2.0197,0,-2.0163,-2.0162,-2.0162,-2.0137,-2.0136,-2.0136,-2.0136,-2.0099,-2.0098,-2.0097,0,0,0,0,0,0,0,0,0,0,0,0,0,-2.0242,-2.0241,-2.0198,-2.0197,-2.0197,-2.0163,-2.0162,-2.0162,-2.0137,-2.0136,-2.0136,-2.0136,-2.0099,-2.0098,-2.0097,0,0,0,0,0,0,0,0,0,0,0,0,0,-2.0216,-2.0241,-2.0198,-2.018,-2.0178,-2.0163,-2.0162,-2.0162,-2.0137,-2.0136,-2.0136,-2.0136,-2.0099,-2.0098,-2.0097,-2.0096,0,0,-2.0094,-2.0093,0,0,0,0,0,0,0,0,-2.0218,-2.0215,-2.0183,-2.0182,-2.0179,-2.0154,-2.0164,-2.0139,-2.0137,-2.0152,-2.0136,-2.0136,-2.0117,-2.0115,-2.0109,-2.0094,-2.0093,-2.0093,-2.0093,-2.0092,-2.0092,0,0,0,0,0,0,0,-2.022,-2.0216,-2.0184,-2.0183,-2.018,-2.0174,-2.017,-2.0159,-2.0137,-2.0151,-2.0149,-2.0145,-2.0116,-2.011,-2.0108,-2.0092,-2.0093,-2.0092,-2.0092,-2.0091,-2.0073,-2.0074,0,0,0,0,0,0,-2.0224,-2.0218,-2.0185,-2.0183,-2.0198,-2.0173,-2.0169,-2.0162,-2.0137,-2.0133,-2.0146,-2.0144,-2.0112,-2.0109,-2.0106,-2.0102,-2.0092,-2.0091,-2.009,-2.0073,-2.0073,-2.0074,0,0,0,0,0,0,-2.0226,-2.0222,-2.0186,-2.02,-2.0195,-2.0173,-2.0166,-2.0162,-2.0155,-2.0133,-2.0129,-2.0143,-2.0112,-2.0108,-2.0098,-2.01,-2.0091,-2.0089,-2.0073,-2.0073,-2.0073,-2.0094,0,0,0,0,0,0,-2.0227,-2.0222,-2.0222,-2.02,-2.0194,-2.018,-2.0166,-2.0161,-2.0153,-2.0151,-2.013,-2.0126,-2.0111,-2.01,-2.0097,-2.0099,-2.0088,-2.0072,-2.0073,-2.0073,-2.0093,-2.0095,-2.0097,0,0,0,0,0,-2.0229,-2.0229,-2.0222,-2.0218,-2.0193,-2.018,-2.0176,-2.016,-2.0154,-2.0153,-2.0138,-2.0127,-2.0101,-2.01,-2.0096,-2.0097,-2.0072,-2.0073,-2.0073,-2.0092,-2.0095,-2.0097,0,0,0,0,0,0,-2.0252,-2.0226,-2.0218,-2.0212,-2.0198,-2.0176,-2.0174,-2.0163,-2.0151,-2.0149,-2.0129,-2.0124,-2.0117,-2.0106,-2.0105,-2.0094,-2.0085,-2.0085,-2.0101,-2.0103,-2.0105,-2.0107,-2.0087,0,0,0,0,0,-2.0256,-2.0248,-2.0226,-2.0222,-2.0216,-2.0196,-2.019,-2.0178,-2.0163,-2.0157,-2.0142,-2.0128,-2.0116,-2.0109,-2.0098,-2.0092,-2.0086,-2.0091,-2.0093,-2.0094,-2.0094,-2.0089,-2.0091,-2.0075,-2.0075,-2.0075,0,0,-2.0265,-2.025,-2.0246,-2.0227,-2.0215,-2.0206,-2.0192,-2.0183,-2.0176,-2.0156,-2.0146,-2.0134,-2.0117,-2.0109,-2.0105,-2.01,-2.0097,-2.0095,-2.0096,-2.0095,-2.009,-2.0091,-2.0093,-2.0076,-2.0076,-2.0076,0,0,-2.0277,-2.0265,-2.026,-2.0249,-2.0231,-2.0218,-2.0217,-2.0196,-2.0187,-2.0177,-2.0161,-2.0153,-2.0134,-2.0122,-2.0113,-2.012,-2.0108,-2.0116,-2.0126,-2.0121,-2.0122,-2.0123,-2.0125,-2.0126,-2.0117,-2.0117,-2.0117,0,-2.029,-2.0277,-2.0259,-2.0251,-2.0243,-2.0225,-2.0219,-2.0209,-2.0188,-2.0182,-2.0177,-2.0152,-2.0139,-2.0128,-2.0129,-2.0124,-2.0121,-2.0118,-2.0124,-2.0125,-2.0125,-2.0126,-2.0127,-2.0118,-2.0118,-2.0117,-2.0117,0,-2.0293,-2.0284,-2.0282,-2.0263,-2.0254,-2.0247,-2.0229,-2.0222,-2.0211,-2.0198,-2.0187,-2.0171,-2.0155,-2.0152,-2.0141,-2.0139,-2.0136,-2.0128,-2.0118,-2.0128,-2.0128,-2.0129,-2.0119,-2.0119,-2.0118,-2.0118,0,0,-2.0318,-2.0289,-2.0288,-2.0279,-2.0258,-2.025,-2.0243,-2.0227,-2.0221,-2.0208,-2.02,-2.0184,-2.0176,-2.0167,-2.0154,-2.0151,-2.0155,-2.0142,-2.0142,-2.0144,-2.015,-2.0156,-2.0157,-2.0148,-2.0148,-2.0148,-2.0151,0,-2.0325,-2.0311,-2.0295,-2.0286,-2.0276,-2.0259,-2.0252,-2.0238,-2.0226,-2.0215,-2.0202,-2.0191,-2.0181,-2.0175,-2.0171,-2.0156,-2.0156,-2.0155,-2.014,-2.0139,-2.0144,-2.0157,-2.0163,-2.0167,-2.0152,-2.0152,-2.0152,0,-2.0332,-2.0319,-2.0309,-2.0288,-2.0284,-2.0278,-2.0262,-2.0253,-2.0237,-2.0228,-2.0217,-2.0204,-2.0194,-2.0187,-2.0172,-2.0172,-2.0165,-2.0157,-2.0156,-2.0154,-2.0145,-2.0154,-2.0168,-2.0169,-2.0152,-2.0152,-2.0152,0,-2.035,-2.033,-2.0321,-2.0314,-2.029,-2.0286,-2.0275,-2.0259,-2.025,-2.0237,-2.0231,-2.0216,-2.0208,-2.0197,-2.018,-2.0176,-2.0167,-2.0158,-2.0159,-2.0159,-2.0157,-2.0157,-2.017,-2.0154,-2.0154,-2.0154,-2.0154,0,-2.0359,-2.0353,-2.0329,-2.0323,-2.0316,-2.0297,-2.0291,-2.0279,-2.0264,-2.0255,-2.0239,-2.0231,-2.021,-2.0199,-2.0186,-2.0176,-2.0172,-2.0164,-2.0161,-2.0165,-2.0166,-2.0159,-2.0158,-2.0154,-2.0154,-2.0154,-2.0154,0,-2.0377,-2.0361,-2.035,-2.0328,-2.0322,-2.0317,-2.0298,-2.0292,-2.0279,-2.0268,-2.0264,-2.0244,-2.023,-2.0212,-2.0193,-2.0184,-2.0175,-2.017,-2.0181,-2.0179,-2.018,-2.0179,-2.0188,-2.0187,-2.0173,-2.0173,-2.0173,0,-2.0384,-2.0379,-2.0356,-2.0349,-2.034,-2.0329,-2.032,-2.0302,-2.0294,-2.0274,-2.027,-2.0255,-2.0243,-2.0222,-2.0205,-2.019,-2.0184,-2.0188,-2.0181,-2.0186,-2.0183,-2.0183,-2.0182,-2.0189,-2.0189,-2.019,-2.019,0,-2.0397,-2.0389,-2.0377,-2.0362,-2.0353,-2.034,-2.0327,-2.0322,-2.0301,-2.0292,-2.0278,-2.0268,-2.0249,-2.0234,-2.0217,-2.0206,-2.0194,-2.0192,-2.0191,-2.0195,-2.0201,-2.0197,-2.0184,-2.0192,-2.0191,-2.0191,-2.0191,-2.0191,-2.0408,-2.0403,-2.0386,-2.0373,-2.0362,-2.0349,-2.0342,-2.0328,-2.0316,-2.0299,-2.0289,-2.0276,-2.0259,-2.0234,-2.0224,-2.0212,-2.0208,-2.0207,-2.0206,-2.0206,-2.0207,-2.0204,-2.0209,-2.0209,-2.0209,-2.0209,-2.0209,0,-2.042,-2.0408,-2.0397,-2.0378,-2.0368,-2.0359,-2.0343,-2.0335,-2.0324,-2.0309,-2.0297,-2.0281,-2.0266,-2.0248,-2.0232,-2.0227,-2.0221,-2.0223,-2.0223,-2.022,-2.0213,-2.0215,-2.0228,-2.0228,-2.0228,-2.0228,-2.0228,-2.0228,-2.0424,-2.0414,-2.0404,-2.0388,-2.0376,-2.0362,-2.0354,-2.0343,-2.0331,-2.0314,-2.0302,-2.029,-2.0274,-2.0257,-2.0243,-2.0238,-2.0233,-2.0237,-2.023,-2.0223,-2.0221,-2.0219,-2.0221,-2.0236,-2.0236,-2.0238,-2.0238,-2.0238]},{"header":{"parameterUnit":"m.s-1","parameterCategory":1,"la1":30.2991,"la2":30.254,"lo1":-89.0895,"lo2":-89.0444,"dy":0.0017,"dx":0.0017,"nx":28,"ny":28,"refTime":"2025-01-17T09:00:00:Z","depth":0,"parameterNumber":3,"parameterNumberName":"V-component_of_WINDS"},"data":[0,0,0,0,0,0,0,0,0,0,0,0,0,0,0,0,0,0,0,0,0,0,0,0,0,0,0,0,0,0,0,0,0,0,0,0,0,0,0,0,0,0,0,0,0,0,0,0,0,0,0,0,0,0,0,0,0,0,2.8733,2.8735,0,2.8923,2.8926,2.8928,2.8973,2.8971,2.897,2.8969,2.9159,2.9166,2.9172,0,0,0,0,0,0,0,0,0,0,0,0,0,2.8405,2.8411,2.8733,2.8735,2.8738,2.8923,2.8926,2.8928,2.8973,2.8971,2.897,2.8968,2.9157,2.9165,2.9172,0,0,0,0,0,0,0,0,0,0,0,0,0,2.8566,2.8413,2.8732,2.8782,2.8789,2.8923,2.8926,2.8929,2.8973,2.8971,2.8969,2.8967,2.9155,2.9164,2.9173,2.927,0,0,2.9202,2.9206,0,0,0,0,0,0,0,0,2.8557,2.8578,2.8773,2.8779,2.8787,2.8922,2.888,2.9043,2.8974,2.8903,2.8969,2.8966,2.9082,2.9097,2.9137,2.9279,2.9287,2.9203,2.9209,2.9213,2.9215,0,0,0,0,0,0,0,2.8546,2.857,2.8808,2.8775,2.8784,2.8794,2.8815,2.8911,2.9001,2.8909,2.8913,2.8935,2.9085,2.9128,2.9142,2.929,2.9203,2.9211,2.9217,2.922,2.9522,2.9525,0,0,0,0,0,0,2.8526,2.8561,2.8802,2.8814,2.8665,2.8802,2.8825,2.8881,2.9,2.9016,2.8936,2.8936,2.9113,2.9131,2.9149,2.9272,2.9213,2.9221,2.9227,2.952,2.9523,2.9526,0,0,0,0,0,0,2.8519,2.8548,2.8794,2.8689,2.8721,2.8809,2.8871,2.8885,2.8928,2.9021,2.9036,2.8964,2.9112,2.9135,2.924,2.9279,2.9226,2.9234,2.9517,2.9521,2.9524,2.9518,0,0,0,0,0,0,2.851,2.8545,2.8583,2.8689,2.8726,2.8884,2.8874,2.889,2.8945,2.8946,2.905,2.9066,2.9112,2.9226,2.925,2.9291,2.9242,2.9514,2.9519,2.9523,2.9515,2.9521,2.9526,0,0,0,0,0,2.8498,2.8572,2.8585,2.8614,2.8776,2.8886,2.8907,2.8961,2.8948,2.8987,2.9046,2.9062,2.927,2.9236,2.9263,2.9308,2.9512,2.9518,2.9523,2.9513,2.952,2.9526,0,0,0,0,0,0,2.8467,2.8587,2.8602,2.8713,2.879,2.8894,2.8945,2.8966,2.9046,2.9044,2.9105,2.9128,2.923,2.9279,2.9239,2.9409,2.9391,2.9402,2.9374,2.9381,2.9387,2.9374,2.9249,0,0,0,0,0,2.8473,2.8554,2.8654,2.8742,2.878,2.8855,2.8905,2.894,2.902,2.9052,2.9119,2.9196,2.9279,2.9332,2.9413,2.9521,2.9546,2.9565,2.9571,2.9575,2.9584,2.9648,2.9659,2.9543,2.9543,2.9543,0,0,2.8487,2.8562,2.8609,2.8738,2.8801,2.8883,2.8882,2.8968,2.9029,2.9065,2.917,2.9221,2.931,2.9418,2.9469,2.9462,2.9621,2.9581,2.9584,2.9592,2.9654,2.9665,2.9675,2.9547,2.9546,2.9546,0,0,2.8555,2.8619,2.8701,2.8765,2.8861,2.8911,2.893,2.9032,2.9068,2.9174,2.9203,2.9275,2.9416,2.948,2.9531,2.9622,2.9641,2.9646,2.9676,2.9737,2.9746,2.9754,2.979,2.9802,2.9655,2.9655,2.9655,0,2.856,2.8685,2.874,2.8826,2.8883,2.892,2.9004,2.9062,2.9178,2.9216,2.9207,2.9386,2.9448,2.9573,2.9596,2.9634,2.9659,2.9637,2.974,2.9749,2.9758,2.9793,2.9805,2.9656,2.9655,2.9655,2.9655,0,2.8688,2.8774,2.8829,2.8944,2.9005,2.9089,2.9157,2.9212,2.9241,2.9291,2.9399,2.9475,2.9574,2.9605,2.9633,2.9734,2.9727,2.9728,2.9712,2.9768,2.9802,2.9816,2.9656,2.9656,2.9656,2.9656,0,0,2.8744,2.8888,2.8908,2.8961,2.907,2.9137,2.9222,2.932,2.9368,2.9446,2.9521,2.9639,2.9641,2.9699,2.9733,2.9786,2.9858,2.9781,2.9784,2.9796,2.9977,2.9979,2.9993,2.9869,2.9872,2.9874,2.9971,0,2.8828,2.8985,2.9037,2.9166,2.9248,2.9284,2.9358,2.9433,2.9482,2.9557,2.961,2.9695,2.969,2.9725,2.9779,2.9838,2.9896,2.9831,2.994,2.9944,2.9921,3.001,3.0012,3.01,2.9984,2.9986,2.9988,0,2.8947,2.9031,2.9169,2.9269,2.9305,2.9372,2.9467,2.9538,2.9622,2.9655,2.9719,2.975,2.9841,2.9816,2.9942,2.9897,2.9944,2.998,2.9984,2.9999,2.9972,3.0031,3.0128,3.0143,3.0008,3.0007,3.0005,0,2.8979,2.9124,2.9227,2.9271,2.9389,2.9436,2.9487,2.957,2.9626,2.9707,2.9745,2.9835,2.9885,2.9954,3.0008,2.9985,3.013,3.011,3.016,3.0159,3.0192,3.019,3.0302,3.0216,3.0216,3.0216,3.0215,0,2.9069,2.9154,2.9244,2.9307,2.9402,2.946,2.9553,2.9605,2.9679,2.9753,2.9787,2.9855,2.9922,2.9999,3.0041,3.0141,3.0161,3.0191,3.0202,3.019,3.0187,3.0225,3.0221,3.0219,3.0219,3.0218,3.0217,0,2.9122,2.9186,2.9301,2.9403,2.9431,2.9497,2.9585,2.9648,2.9697,2.9791,2.9816,2.9894,2.9987,3.0047,3.0164,3.0193,3.0302,3.031,3.0275,3.0281,3.033,3.0326,3.0473,3.0496,3.0391,3.0392,3.0392,0,2.9178,2.9244,2.9355,2.9408,2.946,2.9544,2.9602,2.966,2.9719,2.9821,2.9872,2.9967,3.0046,3.0192,3.0259,3.0349,3.0361,3.0406,3.0375,3.0362,3.0366,3.0363,3.0371,3.0412,3.0413,3.0414,3.0414,0,2.9272,2.93,2.9383,2.9478,2.9546,2.9623,2.97,2.974,2.9812,2.9876,2.9972,3.0034,3.0155,3.0249,3.0345,3.0397,3.0419,3.0423,3.0441,3.0431,3.041,3.0426,3.0293,3.0421,3.042,3.042,3.0419,3.0419,2.9331,2.9392,2.948,2.9572,2.9636,2.9707,2.9772,2.9831,2.9912,3.0017,3.0045,3.0146,3.0229,3.0361,3.0414,3.0493,3.0488,3.0512,3.0519,3.0525,3.0527,3.0394,3.051,3.051,3.051,3.051,3.051,0,2.9429,2.9488,2.9571,2.9679,2.9751,2.9765,2.985,2.991,2.9999,3.0075,3.0153,3.0264,3.0355,3.0429,3.0524,3.0573,3.0585,3.0596,3.0595,3.0607,3.0525,3.0502,3.0585,3.0585,3.0585,3.0585,3.0585,3.0585,2.9489,2.9595,2.9634,2.9771,2.9829,2.993,2.9978,3.0043,3.0105,3.0228,3.0305,3.0353,3.0428,3.0529,3.0613,3.0632,3.0667,3.0677,3.0698,3.0621,3.0612,3.0605,3.0584,3.0683,3.0683,3.0775,3.0776,3.0776]}]]